When you browse on this site, cookies collect data to enhance your experience and personalize the content and advertising you see.
Visit our Privacy Policy to learn more. By continuing to use the site, you agree to this use of cookies and data.
  • In Schweiz
  • Länderverzeichnis
  • Für 7 Tage
  • Wassertemperatur
  • Satellitenkarten
  • Wetterkarte
  • Widgets
  • user-avatar
    Anmelden

    Stündliche Wetter Hefei

    Heute, 17 Juni, Montag

    Zeit Temperatur Niederschläge Wind Luftdruck Luftfeuchtigkeit
    00:00 +27°C° 0 mm 2 m/S 753 mmHg 59%
    01:00 +27°C° 0 mm 2 m/S 753 mmHg 60%
    02:00 +27°C° 0 mm 1 m/S 752 mmHg 60%
    03:00 +27°C° 0 mm 2 m/S 753 mmHg 61%
    04:00 +27°C° 0 mm 2 m/S 753 mmHg 61%
    05:00 +27°C° 0 mm 2 m/S 753 mmHg 62%
    06:00 +26°C° 0 mm 2 m/S 753 mmHg 62%
    07:00 +26°C° 0 mm 2 m/S 753 mmHg 63%
    08:00 +25°C° 0 mm 1 m/S 754 mmHg 64%
    09:00 +25°C° 0.1 mm 2 m/S 754 mmHg 65%
    10:00 +25°C° 0.1 mm 2 m/S 754 mmHg 65%
    11:00 +25°C° 0.1 mm 2 m/S 754 mmHg 66%
    12:00 +25°C° 0.1 mm 2 m/S 754 mmHg 71%
    13:00 +24°C° 0.1 mm 3 m/S 754 mmHg 75%
    14:00 +24°C° 0.1 mm 3 m/S 753 mmHg 80%
    15:00 +22°C° 0.2 mm 4 m/S 753 mmHg 83%
    16:00 +22°C° 0.2 mm 4 m/S 753 mmHg 86%
    17:00 +22°C° 0.2 mm 5 m/S 753 mmHg 89%
    18:00 +22°C° 0 mm 5 m/S 753 mmHg 89%
    19:00 +22°C° 0 mm 4 m/S 753 mmHg 90%
    20:00 +22°C° 0 mm 4 m/S 753 mmHg 91%
    21:00 +21°C° 0.2 mm 4 m/S 753 mmHg 92%
    22:00 +21°C° 0.2 mm 4 m/S 753 mmHg 92%
    23:00 +21°C° 0.2 mm 3 m/S 753 mmHg 93%

    Morgen, 18 Juni, Dienstag

    Zeit Temperatur Niederschläge Wind Luftdruck Luftfeuchtigkeit
    00:00 +21°C° 0.2 mm 3 m/S 753 mmHg 94%
    01:00 +21°C° 0.2 mm 2 m/S 753 mmHg 94%
    02:00 +21°C° 0.2 mm 2 m/S 752 mmHg 95%
    03:00 +21°C° 0 mm 2 m/S 752 mmHg 95%
    04:00 +21°C° 0 mm 2 m/S 752 mmHg 95%
    05:00 +22°C° 0 mm 1 m/S 752 mmHg 95%
    06:00 +23°C° 0 mm 1 m/S 752 mmHg 93%
    07:00 +23°C° 0 mm 1 m/S 753 mmHg 92%
    08:00 +23°C° 0 mm 1 m/S 753 mmHg 90%
    09:00 +25°C° 0.1 mm 1 m/S 753 mmHg 85%
    10:00 +26°C° 0.1 mm 1 m/S 752 mmHg 79%
    11:00 +27°C° 0.1 mm 1 m/S 752 mmHg 74%
    12:00 +28°C° 0 mm 1 m/S 752 mmHg 72%
    13:00 +28°C° 0 mm 2 m/S 751 mmHg 71%
    14:00 +29°C° 0 mm 2 m/S 751 mmHg 69%
    15:00 +29°C° 0 mm 2 m/S 751 mmHg 69%
    16:00 +29°C° 0 mm 2 m/S 751 mmHg 69%
    17:00 +29°C° 0 mm 2 m/S 751 mmHg 70%
    18:00 +28°C° 0 mm 3 m/S 751 mmHg 75%
    19:00 +27°C° 0 mm 3 m/S 751 mmHg 81%
    20:00 +26°C° 0 mm 3 m/S 751 mmHg 86%
    21:00 +26°C° 0 mm 3 m/S 751 mmHg 87%
    22:00 +26°C° 0 mm 3 m/S 751 mmHg 88%
    23:00 +25°C° 0 mm 2 m/S 751 mmHg 88%

    übermorgen, 19 Juni, Mittwoch

    Zeit Temperatur Niederschläge Wind Luftdruck Luftfeuchtigkeit
    00:00 +25°C° 0 mm 2 m/S 751 mmHg 89%
    01:00 +25°C° 0 mm 2 m/S 751 mmHg 89%
    02:00 +25°C° 0 mm 2 m/S 751 mmHg 89%
    03:00 +25°C° 0.1 mm 1 m/S 751 mmHg 90%
    04:00 +25°C° 0.1 mm 1 m/S 751 mmHg 91%
    05:00 +23°C° 0.1 mm 0 m/S 751 mmHg 91%
    06:00 +23°C° 0.3 mm 0 m/S 751 mmHg 90%
    07:00 +25°C° 0.3 mm 1 m/S 752 mmHg 89%
    08:00 +26°C° 0.3 mm 1 m/S 752 mmHg 88%
    09:00 +27°C° 0.1 mm 1 m/S 752 mmHg 83%
    10:00 +28°C° 0.1 mm 1 m/S 752 mmHg 78%
    11:00 +29°C° 0.1 mm 2 m/S 752 mmHg 72%
    12:00 +29°C° 0.1 mm 2 m/S 751 mmHg 73%
    13:00 +29°C° 0.1 mm 3 m/S 751 mmHg 74%
    14:00 +29°C° 0.1 mm 3 m/S 751 mmHg 75%
    15:00 +29°C° 0 mm 3 m/S 750 mmHg 76%
    16:00 +29°C° 0 mm 3 m/S 750 mmHg 77%
    17:00 +28°C° 0 mm 3 m/S 750 mmHg 79%
    18:00 +28°C° 0 mm 2 m/S 750 mmHg 82%
    19:00 +27°C° 0 mm 2 m/S 750 mmHg 84%
    20:00 +27°C° 0 mm 2 m/S 750 mmHg 87%
    21:00 +26°C° 0 mm 2 m/S 750 mmHg 88%
    22:00 +26°C° 0 mm 1 m/S 751 mmHg 89%
    23:00 +26°C° 0 mm 1 m/S 751 mmHg 89%

    20 Juni, Donnerstag

    Zeit Temperatur Niederschläge Wind Luftdruck Luftfeuchtigkeit
    00:00 +26°C° 0 mm 1 m/S 751 mmHg 89%
    01:00 +26°C° 0 mm 2 m/S 750 mmHg 90%
    02:00 +26°C° 0 mm 2 m/S 750 mmHg 90%
    03:00 +26°C° 0 mm 1 m/S 750 mmHg 90%
    04:00 +26°C° 0 mm 1 m/S 750 mmHg 91%
    05:00 +25°C° 0 mm 1 m/S 750 mmHg 91%
    06:00 +26°C° 0 mm 1 m/S 750 mmHg 90%
    07:00 +26°C° 0 mm 2 m/S 750 mmHg 89%
    08:00 +26°C° 0 mm 2 m/S 750 mmHg 88%
    09:00 +26°C° 0.6 mm 2 m/S 750 mmHg 89%
    10:00 +26°C° 0.6 mm 2 m/S 751 mmHg 89%
    11:00 +26°C° 0.6 mm 2 m/S 751 mmHg 90%
    12:00 +25°C° 3 mm 2 m/S 750 mmHg 91%
    13:00 +24°C° 3 mm 3 m/S 750 mmHg 93%
    14:00 +22°C° 3 mm 4 m/S 749 mmHg 94%
    15:00 +22°C° 4.9 mm 4 m/S 749 mmHg 92%
    16:00 +22°C° 4.9 mm 5 m/S 749 mmHg 91%
    17:00 +21°C° 4.9 mm 5 m/S 749 mmHg 89%
    18:00 +21°C° 2.6 mm 5 m/S 749 mmHg 90%
    19:00 +21°C° 2.6 mm 5 m/S 750 mmHg 91%
    20:00 +20°C° 2.6 mm 5 m/S 750 mmHg 92%
    21:00 +21°C° 1 mm 4 m/S 750 mmHg 92%
    22:00 +21°C° 1 mm 3 m/S 750 mmHg 92%
    23:00 +21°C° 1 mm 3 m/S 750 mmHg 93%

    21 Juni, Freitag

    Zeit Temperatur Niederschläge Wind Luftdruck Luftfeuchtigkeit
    00:00 +21°C° 0.1 mm 3 m/S 750 mmHg 93%
    01:00 +21°C° 0.1 mm 3 m/S 750 mmHg 93%
    02:00 +21°C° 0.1 mm 3 m/S 749 mmHg 93%
    03:00 +21°C° 0 mm 3 m/S 749 mmHg 93%
    04:00 +21°C° 0 mm 2 m/S 749 mmHg 93%
    05:00 +21°C° 0 mm 2 m/S 749 mmHg 93%
    06:00 +22°C° 0 mm 3 m/S 750 mmHg 91%
    07:00 +22°C° 0 mm 3 m/S 750 mmHg 88%
    08:00 +22°C° 0 mm 3 m/S 751 mmHg 86%
    09:00 +24°C° 0 mm 2 m/S 751 mmHg 82%
    10:00 +25°C° 0 mm 2 m/S 751 mmHg 77%
    11:00 +26°C° 0 mm 2 m/S 751 mmHg 73%
    12:00 +28°C° 0 mm 2 m/S 751 mmHg 67%
    13:00 +29°C° 0 mm 1 m/S 750 mmHg 62%
    14:00 +31°C° 0 mm 1 m/S 750 mmHg 56%
    15:00 +31°C° 0.2 mm 1 m/S 750 mmHg 57%
    16:00 +31°C° 0.2 mm 1 m/S 749 mmHg 59%
    17:00 +31°C° 0.2 mm 1 m/S 749 mmHg 60%
    18:00 +30°C° 0.2 mm 1 m/S 749 mmHg 65%
    19:00 +29°C° 0.2 mm 1 m/S 750 mmHg 69%
    20:00 +28°C° 0.2 mm 1 m/S 750 mmHg 74%
    21:00 +27°C° 0 mm 1 m/S 750 mmHg 76%
    22:00 +26°C° 0 mm 2 m/S 751 mmHg 78%
    23:00 +26°C° 0 mm 2 m/S 751 mmHg 80%

    22 Juni, Samstag

    Zeit Temperatur Niederschläge Wind Luftdruck Luftfeuchtigkeit
    00:00 +26°C° 0 mm 3 m/S 751 mmHg 82%
    01:00 +25°C° 0 mm 3 m/S 751 mmHg 84%
    02:00 +25°C° 0 mm 3 m/S 751 mmHg 86%
    03:00 +24°C° 0 mm 3 m/S 751 mmHg 87%
    04:00 +24°C° 0 mm 3 m/S 751 mmHg 89%
    05:00 +22°C° 0 mm 3 m/S 751 mmHg 91%
    06:00 +24°C° 0 mm 3 m/S 752 mmHg 86%
    07:00 +25°C° 0 mm 3 m/S 752 mmHg 81%
    08:00 +27°C° 0 mm 3 m/S 752 mmHg 76%
    09:00 +28°C° 0 mm 3 m/S 752 mmHg 67%
    10:00 +29°C° 0 mm 4 m/S 752 mmHg 58%
    11:00 +32°C° 0 mm 4 m/S 752 mmHg 50%
    12:00 +32°C° 0 mm 4 m/S 752 mmHg 47%
    13:00 +33°C° 0 mm 4 m/S 752 mmHg 44%
    14:00 +33°C° 0 mm 4 m/S 751 mmHg 42%
    15:00 +33°C° 0 mm 4 m/S 751 mmHg 41%
    16:00 +33°C° 0 mm 4 m/S 751 mmHg 41%
    17:00 +33°C° 0 mm 4 m/S 751 mmHg 40%
    18:00 +30°C° 0 mm 3 m/S 751 mmHg 44%
    19:00 +29°C° 0 mm 3 m/S 752 mmHg 48%
    20:00 +27°C° 0 mm 3 m/S 752 mmHg 52%
    21:00 +26°C° 0 mm 3 m/S 753 mmHg 53%
    22:00 +26°C° 0 mm 3 m/S 753 mmHg 54%
    23:00 +25°C° 0 mm 3 m/S 753 mmHg 54%
    Mehr zeigen